GW2011 Weather Reports


time (UTC)temp
C
wind
direction
speed
KPH
gust
KPH
rain 1hr
cm
rain 24hr
cm
rain mn
cm
humidity
%
barometer
mb
20260502170514 12 260 16.1 32.2 0.00 0.00 0.00 48 1012.0
20260502164016 12 242 16.1 25.7 0.00 0.00 0.00 46 1012.6
20260502163515 12 253 16.1 25.7 0.00 0.00 0.00 46 1012.5
20260502163034 12 254 17.7 25.7 0.00 0.00 0.00 46 1012.7
20260502162515 12 251 12.9 22.5 0.00 0.00 0.00 50 1012.7
20260502162014 12 212 16.1 27.4 0.00 0.00 0.00 48 1012.7
20260502161537 12 223 12.9 27.4 0.00 0.00 0.00 46 1012.8
20260502161015 11 254 16.1 25.7 0.00 0.00 0.00 47 1012.9
20260502160515 11 240 14.5 25.7 0.00 0.00 0.00 46 1012.9
20260502152017 10 251 11.3 17.7 0.00 0.00 0.00 51 1013.6
20260502151531 10 211 11.3 19.3 0.00 0.00 0.00 53 1013.6
20260502151016 10 250 12.9 19.3 0.00 0.00 0.00 52 1013.6
20260502150513 10 235 9.7 19.3 0.00 0.00 0.00 53 1013.6
20260502130516 6 254 6.4 12.9 0.00 0.00 0.00 64 1014.7
20260502123518 5 267 6.4 11.3 0.00 0.00 0.00 70 1014.9
20260502123034 5 269 4.8 6.4 0.00 0.00 0.00 69 1014.7
20260502122515 4 268 4.8 9.7 0.00 0.00 0.00 68 1014.8
20260502122015 4 265 3.2 9.7 0.00 0.00 0.00 70 1014.9
20260502121535 4 265 4.8 9.7 0.00 0.00 0.00 70 1014.9
20260502121015 3 268 4.8 9.7 0.00 0.00 0.00 70 1014.8
20260502120514 3 286 3.2 9.7 0.00 0.00 0.00 71 1014.7
20260502115515 3 288 3.2 6.4 0.00 0.00 0.00 69 1014.8
20260502115013 2 276 3.2 6.4 0.00 0.00 0.00 70 1015.0
20260502114538 2 292 1.6 4.8 0.00 0.00 0.00 71 1014.9
20260502114015 2 302 0.0 3.2 0.00 0.00 0.00 72 1015.0
20260502113515 2 302 0.0 3.2 0.00 0.00 0.00 72 1014.8
20260502113036 2 302 0.0 3.2 0.00 0.00 0.00 72 1015.0
20260502112514 2 302 0.0 3.2 0.00 0.00 0.00 73 1014.9
20260502112019 2 302 1.6 3.2 0.00 0.00 0.00 74 1014.9
20260502111532 2 0 0.0 3.2 0.00 0.00 0.00 75 1015.0
20260502111015 1 302 0.0 1.6 0.00 0.00 0.00 75 1014.9
20260502110513 1 0 0.0 0.0 0.00 0.00 0.00 75 1014.9
20260502110035 1 0 0.0 0.0 0.00 0.00 0.00 75 1014.9
20260502105516 1 0 0.0 1.6 0.00 0.00 0.00 74 1015.1
20260502105014 1 0 0.0 1.6 0.00 0.00 0.00 75 1015.0
20260502104536 1 0 0.0 3.2 0.00 0.00 0.00 75 1014.8
20260502104017 1 0 0.0 3.2 0.00 0.00 0.00 74 1015.1
20260502103516 1 302 1.6 3.2 0.00 0.00 0.00 75 1015.0
20260502103057 1 302 0.0 1.6 0.00 0.00 0.00 73 1014.9
20260502102513 1 302 0.0 1.6 0.00 0.00 0.00 74 1015.1
20260502102016 1 302 0.0 1.6 0.00 0.00 0.00 74 1015.0
20260502101546 1 0 0.0 3.2 0.00 0.00 0.00 74 1015.0
20260502101016 1 302 0.0 3.2 0.00 0.00 0.00 75 1015.0
20260502100512 1 302 1.6 3.2 0.00 0.00 0.00 78 1015.0
20260502091533 1 302 0.0 3.2 0.00 0.00 0.00 75 1014.9
20260502091016 1 302 0.0 3.2 0.00 0.00 0.00 77 1015.1
20260502090515 1 302 0.0 3.2 0.00 0.00 0.00 77 1015.0
20260502071536 3 0 0.0 3.2 0.00 0.00 0.00 71 1015.0
20260502071014 3 302 1.6 3.2 0.00 0.00 0.00 69 1015.2
20260502070513 3 302 1.6 3.2 0.00 0.00 0.00 68 1015.2
20260502070034 3 302 1.6 3.2 0.00 0.00 0.00 68 1015.2
20260502065516 3 302 1.6 3.2 0.00 0.00 0.00 65 1015.2
20260502065017 3 302 1.6 3.2 0.00 0.00 0.00 66 1015.4
20260502064537 3 302 1.6 3.2 0.00 0.00 0.00 66 1015.3
20260502064015 3 302 1.6 3.2 0.00 0.00 0.00 68 1015.4
20260502063513 3 302 1.6 3.2 0.00 0.00 0.00 67 1015.4
20260502063042 3 302 1.6 3.2 0.00 0.00 0.00 68 1015.4
20260502062516 3 302 1.6 4.8 0.00 0.00 0.00 69 1015.5
20260502062016 3 302 1.6 4.8 0.00 0.00 0.00 67 1015.5
20260502061533 3 302 1.6 4.8 0.00 0.00 0.00 68 1015.5
20260502061019 3 302 1.6 4.8 0.00 0.00 0.00 67 1015.4
20260502060516 3 302 1.6 4.8 0.00 0.00 0.00 68 1015.4
20260502060034 3 302 1.6 4.8 0.00 0.00 0.00 69 1015.4
20260502055514 3 302 1.6 4.8 0.00 0.00 0.00 68 1015.4
20260502055013 3 302 1.6 4.8 0.00 0.00 0.00 66 1015.4
20260502054548 3 302 3.2 4.8 0.00 0.00 0.00 66 1015.4
20260502054013 3 302 1.6 4.8 0.00 0.00 0.00 67 1015.5
20260502053513 3 302 1.6 4.8 0.00 0.00 0.00 68 1015.5
20260502053037 3 302 1.6 4.8 0.00 0.00 0.00 69 1015.4
20260502052514 3 302 1.6 4.8 0.00 0.00 0.00 68 1015.4
20260502052045 3 302 1.6 4.8 0.00 0.00 0.00 67 1015.4
20260502051533 3 302 1.6 4.8 0.00 0.00 0.00 68 1015.3
20260502051014 3 302 1.6 3.2 0.00 0.00 0.00 69 1015.4
20260502050513 3 302 1.6 3.2 0.00 0.00 0.00 69 1015.3
20260502050031 3 302 1.6 3.2 0.00 0.00 0.00 69 1015.4
20260502045514 3 302 1.6 3.2 0.00 0.00 0.00 69 1015.4
20260502045014 3 302 1.6 3.2 0.00 0.00 0.00 68 1015.5
20260502044530 3 302 1.6 3.2 0.00 0.00 0.00 68 1015.5
20260502044013 3 302 1.6 4.8 0.00 0.00 0.00 68 1015.4
20260502043516 3 302 1.6 4.8 0.00 0.00 0.00 69 1015.4
20260502043031 3 302 1.6 3.2 0.00 0.00 0.00 68 1015.4
20260502042515 3 302 1.6 3.2 0.00 0.00 0.00 68 1015.5
20260502042017 3 302 1.6 3.2 0.00 0.00 0.00 66 1015.6
20260502041537 4 302 1.6 4.8 0.00 0.00 0.00 67 1015.6
20260502041017 4 302 1.6 4.8 0.00 0.00 0.00 68 1015.5
20260502040513 4 302 1.6 3.2 0.00 0.00 0.00 67 1015.5
20260502040034 4 302 1.6 3.2 0.00 0.00 0.00 65 1015.6
20260502035513 4 302 1.6 3.2 0.00 0.00 0.00 65 1015.5
20260502035013 5 302 1.6 3.2 0.00 0.00 0.00 66 1015.6
20260502034534 5 302 0.0 3.2 0.00 0.00 0.00 66 1015.6
20260502034019 5 302 1.6 3.2 0.00 0.00 0.00 65 1015.5
20260502033514 5 302 0.0 3.2 0.00 0.00 0.00 64 1015.7
20260502033039 5 302 0.0 3.2 0.00 0.00 0.00 61 1015.7
20260502032516 5 302 1.6 3.2 0.00 0.00 0.00 62 1015.4
20260502032015 5 302 1.6 3.2 0.00 0.00 0.00 60 1015.4
20260502031533 5 302 1.6 3.2 0.00 0.00 0.00 61 1015.5
20260502031014 5 302 1.6 3.2 0.00 0.00 0.00 59 1015.5
20260502030515 6 302 1.6 3.2 0.00 0.00 0.00 58 1015.5
20260502030035 6 302 1.6 4.8 0.00 0.00 0.00 56 1015.4
20260502025516 6 302 0.0 4.8 0.00 0.00 0.00 56 1015.4
20260502025016 6 0 0.0 0.0 0.00 0.00 0.00 55 1015.3
20260502024530 6 0 0.0 0.0 0.00 0.00 0.00 52 1015.5
20260502024018 6 0 0.0 0.0 0.00 0.00 0.00 52 1015.4
20260502023516 7 0 0.0 0.0 0.00 0.00 0.00 51 1015.3
20260502023031 7 0 0.0 0.0 0.00 0.00 0.00 52 1015.2
20260502022512 7 0 0.0 0.0 0.00 0.00 0.00 53 1015.3
20260502022020 7 0 0.0 1.6 0.00 0.00 0.00 50 1015.3
20260502021531 7 0 0.0 3.2 0.00 0.00 0.00 52 1015.3
20260502021016 7 0 0.0 4.8 0.00 0.00 0.00 48 1015.2
20260502020516 7 130 1.6 4.8 0.00 0.00 0.00 47 1015.3
20260502020032 8 130 1.6 3.2 0.00 0.00 0.00 47 1015.2
20260502015514 8 130 1.6 3.2 0.00 0.00 0.00 46 1015.1
20260502015017 8 130 1.6 3.2 0.00 0.00 0.00 46 1015.0
20260502014534 8 130 1.6 3.2 0.00 0.00 0.00 47 1015.2
20260502014012 9 130 1.6 3.2 0.00 0.00 0.00 47 1015.2
20260502013512 9 130 0.0 3.2 0.00 0.00 0.00 45 1015.1
20260502013032 9 0 0.0 3.2 0.00 0.00 0.00 43 1015.1
20260502012515 9 0 0.0 3.2 0.00 0.00 0.00 42 1015.1
20260502012015 10 130 0.0 3.2 0.00 0.00 0.00 42 1014.9
20260502011532 10 130 0.0 3.2 0.00 0.00 0.00 41 1014.7
20260502011015 10 0 1.6 3.2 0.00 0.00 0.00 42 1014.8
20260502010512 10 130 0.0 1.6 0.00 0.00 0.00 42 1014.8
20260502010038 10 0 0.0 1.6 0.00 0.00 0.00 42 1014.8
20260502005515 10 130 0.0 3.2 0.00 0.03 0.00 41 1014.7
20260502005013 10 130 0.0 3.2 0.00 0.03 0.00 40 1015.0
20260502004532 10 0 0.0 1.6 0.00 0.03 0.00 41 1014.8
20260502004015 10 0 0.0 1.6 0.00 0.03 0.00 44 1014.7
20260502003515 10 0 0.0 1.6 0.00 0.03 0.00 40 1014.6
20260502003035 10 0 0.0 1.6 0.00 0.03 0.00 40 1014.8
20260502002513 10 0 0.0 1.6 0.00 0.03 0.00 40 1014.7
20260502002015 10 130 0.0 4.8 0.00 0.03 0.00 39 1014.7
20260502001533 10 0 3.2 6.4 0.00 0.03 0.00 40 1014.8
20260502001016 10 130 4.8 6.4 0.00 0.03 0.00 41 1014.8
20260502000514 10 128 4.8 6.4 0.00 0.03 0.00 42 1014.7
20260502000032 10 111 3.2 9.7 0.00 0.03 0.00 46 1014.8
20260501235516 10 101 3.2 9.7 0.00 0.03 0.00 49 1014.8
20260501235016 10 101 3.2 11.3 0.00 0.03 0.00 43 1014.9
20260501234535 10 118 6.4 11.3 0.00 0.03 0.00 43 1014.8
20260501234016 11 116 3.2 6.4 0.00 0.03 0.00 41 1015.0
20260501233514 11 86 1.6 6.4 0.00 0.03 0.00 44 1014.8
20260501233042 11 80 1.6 6.4 0.00 0.03 0.00 38 1015.1
20260501232515 11 0 1.6 6.4 0.00 0.03 0.00 38 1015.1
20260501232017 11 0 0.0 6.4 0.00 0.03 0.00 38 1015.1
20260501231532 11 182 0.0 8.0 0.00 0.03 0.00 41 1015.1
20260501231017 11 114 3.2 8.0 0.00 0.03 0.00 41 1015.0
20260501230517 11 86 3.2 9.7 0.00 0.03 0.00 42 1015.0
20260501230034 11 80 3.2 9.7 0.00 0.03 0.00 42 1015.1
20260501225516 11 59 4.8 9.7 0.00 0.03 0.00 37 1015.0
20260501225014 11 96 3.2 9.7 0.00 0.03 0.00 42 1015.0
20260501224534 11 215 1.6 6.4 0.00 0.03 0.00 35 1015.1
20260501224019 11 277 1.6 6.4 0.00 0.03 0.00 36 1015.0
20260501223515 11 319 3.2 6.4 0.00 0.03 0.00 36 1015.0
20260501223039 11 317 1.6 6.4 0.00 0.03 0.00 35 1015.0
20260501222516 11 0 1.6 6.4 0.00 0.03 0.00 37 1015.1
20260501222014 11 66 1.6 6.4 0.00 0.03 0.00 38 1015.2
20260501221534 11 69 3.2 6.4 0.00 0.03 0.00 39 1015.2
20260501221015 11 88 1.6 6.4 0.00 0.03 0.00 38 1015.1
20260501220512 11 267 1.6 6.4 0.00 0.03 0.00 37 1015.2
20260501220030 11 70 3.2 12.9 0.00 0.03 0.00 39 1015.1
20260501215512 11 252 1.6 12.9 0.00 0.03 0.00 38 1015.0
20260501215015 11 298 1.6 11.3 0.00 0.03 0.00 38 1015.0
20260501214533 10 281 4.8 11.3 0.00 0.03 0.00 41 1015.1
20260501214017 10 300 3.2 9.7 0.00 0.03 0.00 38 1015.2
20260501213517 10 32 1.6 4.8 0.00 0.03 0.00 40 1015.2
20260501213038 10 15 1.6 4.8 0.00 0.03 0.00 42 1015.1
20260501212515 10 66 0.0 11.3 0.00 0.03 0.00 40 1015.1
20260501212015 10 61 3.2 11.3 0.00 0.03 0.00 38 1015.2
20260501211547 10 111 1.6 8.0 0.00 0.03 0.00 40 1015.2
20260501211015 10 76 3.2 8.0 0.00 0.03 0.00 41 1015.2
20260501210515 10 70 1.6 8.0 0.00 0.03 0.00 43 1015.4
20260501210038 10 239 1.6 8.0 0.00 0.03 0.00 40 1015.4
20260501205515 10 251 3.2 6.4 0.00 0.03 0.00 42 1015.3
20260501205012 10 302 0.0 9.7 0.00 0.03 0.00 43 1015.5
20260501204532 10 0 4.8 12.9 0.00 0.03 0.00 46 1015.5
20260501204015 10 129 4.8 12.9 0.00 0.03 0.00 40 1015.4
20260501203513 10 113 3.2 11.3 0.00 0.03 0.00 44 1015.5
20260501203032 10 307 3.2 9.7 0.00 0.03 0.00 43 1015.6
20260501202515 10 0 1.6 9.7 0.00 0.03 0.00 39 1015.6
20260501202017 10 103 3.2 6.4 0.00 0.03 0.00 42 1015.5
20260501201534 10 315 1.6 6.4 0.00 0.03 0.00 46 1015.7
20260501201019 9 293 0.0 9.7 0.00 0.03 0.00 43 1015.6
20260501200515 9 288 1.6 12.9 0.00 0.03 0.00 44 1015.5
20260501200037 9 267 6.4 12.9 0.00 0.03 0.00 41 1015.6
20260501195516 10 282 4.8 12.9 0.00 0.03 0.00 42 1015.7
20260501195018 9 252 3.2 8.0 0.00 0.03 0.00 46 1015.5
20260501194533 8 287 0.0 6.4 0.00 0.03 0.00 46 1015.8
20260501194013 8 293 1.6 6.4 0.00 0.03 0.00 46 1015.7
20260501193518 8 320 3.2 6.4 0.00 0.03 0.00 46 1015.6
20260501193037 8 105 1.6 9.7 0.00 0.03 0.00 47 1015.7
20260501192515 8 110 4.8 14.5 0.00 0.03 0.00 48 1015.7
20260501192015 8 65 4.8 14.5 0.00 0.03 0.00 44 1015.7
20260501191533 8 127 4.8 8.0 0.00 0.03 0.00 45 1015.8
20260501191015 8 34 0.0 8.0 0.00 0.03 0.00 48 1015.8
20260501190515 8 0 1.6 9.7 0.00 0.03 0.00 46 1015.7
20260501190030 8 257 3.2 9.7 0.00 0.03 0.00 47 1015.8
20260501185514 8 250 3.2 6.4 0.00 0.03 0.00 47 1015.9
20260501185015 8 272 3.2 6.4 0.00 0.03 0.00 48 1015.8
20260501184532 8 144 1.6 6.4 0.00 0.03 0.00 47 1015.7
20260501184015 8 144 3.2 6.4 0.00 0.03 0.00 49 1015.7
20260501183520 8 141 1.6 6.4 0.00 0.03 0.00 48 1015.8
20260501183035 8 236 3.2 8.0 0.00 0.03 0.00 48 1015.6
20260501182515 8 122 3.2 8.0 0.00 0.03 0.00 47 1015.9
20260501182015 8 34 1.6 4.8 0.00 0.03 0.00 48 1015.9
20260501181531 8 0 1.6 16.1 0.00 0.03 0.00 52 1016.0
20260501181015 8 257 1.6 16.1 0.00 0.03 0.00 49 1015.8
20260501180514 8 256 8.0 14.5 0.00 0.03 0.00 50 1015.9
20260501180035 8 261 3.2 9.7 0.00 0.03 0.00 48 1015.9
20260501175516 8 252 4.8 9.7 0.00 0.03 0.00 48 1015.9